Dewpoint
67 66 66 65 66 67 66 65 65 65 65 66 65 66 66 65 63 60 61 62 62 63 62 62 65 65 64 62 64 65 67 66 65 63 63 64 64 63 65 64 64 65 65 64 64 64 63 63 62 61 60 61 60 60 60 58 58 59 59 58 58 58 58 58 58 57 57 56 56 56 56 56 56 56 56 56 56 56 55 55 55 55 54 55 54
67 66 66 67 65 66 66 67 66 65 65 66 66 65 65 65 66 64 61 64 61 61 62 62 62 63 63 65 65 65 66 65 64 62 62 64 65 65 66 65 65 65 66 65 65 64 64 63 63 63 62 62 61 61 61 60 59 59 59 60 59 59 59 59 58 58 58 58 57 57 57 57 57 56 56 56 57 57 56 55 55 55 54 55 55
66 66 67 66 67 67 66 65 64 65 67 65 66 66 66 64 65 65 65 64 63 63 61 62 62 61 64 63 64 66 65 66 65 63 61 63 64 65 63 67 65 65 66 66 65 65 65 64 64 63 64 63 62 62 61 62 61 60 62 62 60 60 60 59 59 59 59 58 58 58 58 57 57 57 57 57 57 57 57 57 55 55 55 55 55
67 67 66 66 65 65 66 66 65 64 65 65 65 66 65 62 64 66 67 67 65 64 65 63 63 61 61 61 63 64 63 65 63 63 63 64 64 64 65 63 66 65 66 67 66 66 65 65 65 65 64 64 63 63 63 63 62 62 61 62 62 61 60 60 60 60 59 59 59 59 59 58 58 57 58 57 57 57 57 57 57 56 56 56 56
67 67 67 65 66 66 65 66 66 66 67 66 64 66 65 65 66 64 64 65 65 65 62 65 64 63 63 61 64 62 62 62 64 65 64 63 64 64 65 64 63 66 66 66 67 66 66 65 65 65 65 65 64 64 64 63 63 63 62 61 62 62 61 61 61 60 60 60 60 60 60 59 59 59 58 58 58 57 57 57 57 57 57 56 56
66 67 66 65 66 65 65 65 65 67 67 67 65 64 63 63 63 63 62 62 62 64 63 63 61 61 63 61 63 64 63 61 62 64 64 63 63 65 64 63 63 63 61 66 67 67 66 66 65 65 66 66 65 65 64 64 64 64 63 63 62 62 62 62 62 61 61 61 60 60 60 60 60 59 59 59 58 58 58 58 58 57 57 57 57
65 66 65 64 64 63 64 62 65 67 64 64 65 65 65 64 62 62 62 61 61 58 60 62 62 60 61 65 62 60 64 63 63 63 62 64 64 63 65 63 64 64 63 63 67 68 67 66 66 65 65 66 66 66 66 65 64 64 64 64 63 63 64 64 63 63 62 61 61 61 61 61 61 60 60 59 59 59 58 58 58 58 57 57 57
64 65 65 63 62 61 61 64 66 66 65 66 66 64 63 64 64 64 61 57 58 58 61 60 62 62 62 64 65 64 63 62 64 62 62 63 62 64 64 63 64 63 64 63 65 67 68 67 66 66 66 66 66 67 67 66 65 65 64 64 64 65 65 65 65 64 63 62 62 62 62 62 61 61 61 60 60 60 59 59 58 58 58 58 58
63 64 65 64 60 61 60 64 67 66 66 66 65 64 64 63 65 65 64 61 57 56 58 60 62 61 61 62 64 65 64 63 64 64 61 63 62 60 62 61 63 64 64 63 64 64 68 68 67 67 66 66 66 66 67 67 67 66 66 65 65 65 66 66 65 66 65 64 63 63 63 62 62 62 61 61 61 61 60 60 59 59 59 58 58
62 62 63 63 61 61 60 64 65 65 65 65 65 65 65 65 64 65 64 63 60 60 60 60 60 61 62 61 63 63 63 65 64 63 62 61 62 60 60 60 60 60 62 63 62 64 65 68 68 67 67 66 66 66 67 67 67 67 67 67 66 65 66 66 66 66 66 65 65 64 64 63 63 63 62 62 62 61 61 61 60 60 60 59 59
62 62 63 61 62 63 62 63 63 63 63 63 63 64 65 65 64 63 64 63 61 62 61 62 62 62 63 64 65 64 64 62 62 61 61 62 60 59 56 60 60 60 61 62 62 62 64 66 66 66 66 67 66 67 66 66 66 67 67 67 67 67 66 67 66 66 66 66 66 65 65 64 64 63 63 63 63 62 62 62 61 61 60 60 60
60 61 64 64 62 62 64 63 62 62 61 61 59 59 63 65 67 61 61 60 61 61 63 64 63 64 64 64 64 64 63 62 62 61 61 61 62 61 60 59 61 61 60 60 60 60 63 64 65 64 64 65 67 66 67 67 67 67 67 67 67 67 67 67 67 67 66 66 66 66 66 65 65 64 64 64 63 63 63 62 62 62 61 61 61
61 61 63 63 62 61 62 62 61 61 61 61 61 60 61 63 63 64 62 61 60 60 63 63 61 59 61 63 66 65 66 64 63 62 61 61 61 61 62 62 63 63 63 63 60 60 60 63 64 64 63 60 67 67 67 67 66 67 67 67 67 67 67 67 67 67 67 67 67 66 66 66 66 65 65 64 64 64 63 63 63 63 62 62 61
60 61 63 63 62 61 62 63 62 61 61 59 60 61 61 62 62 61 60 60 60 59 61 62 59 56 56 57 57 55 60 65 64 64 64 64 64 64 65 65 64 64 65 64 65 62 61 62 63 63 62 63 62 64 66 66 65 66 67 67 67 67 67 67 67 67 67 67 67 67 66 66 66 66 65 65 65 64 64 64 64 63 63 63 62
60 59 61 62 62 62 63 64 64 64 62 60 59 60 60 61 62 61 60 60 60 60 62 63 58 59 60 57 51 53 59 62 64 63 62 62 61 62 64 64 64 65 66 65 64 64 61 62 62 62 64 66 64 62 63 64 63 66 67 67 67 67 67 67 67 66 66 67 67 67 67 67 66 67 66 66 66 65 65 65 64 64 64 64 63
60 58 59 61 63 63 63 62 63 63 61 59 59 57 60 61 61 62 61 58 53 55 60 62 61 58 53 52 54 54 50 50 59 61 60 61 62 61 62 64 65 65 66 65 64 64 65 64 62 64 65 65 64 63 62 62 63 65 66 66 66 66 66 66 66 66 66 66 66 67 67 67 67 67 66 66 65 65 66 65 65 65 64 64 64
60 60 58 60 60 62 61 62 63 62 61 59 58 58 60 61 62 62 61 59 56 57 58 61 60 61 58 55 51 51 52 55 57 55 57 57 60 61 63 62 61 64 64 64 65 65 66 64 65 64 66 66 65 65 64 64 64 65 65 65 66 65 66 66 66 66 66 66 66 66 66 66 66 66 66 66 66 66 66 66 66 66 65 65 64
63 62 62 62 61 61 62 60 60 60 61 61 60 60 60 61 61 61 61 62 62 58 57 60 62 62 62 60 59 55 56 55 54 50 55 57 59 57 58 62 64 64 65 64 64 64 65 65 66 65 66 65 65 66 64 65 66 65 65 64 67 67 66 66 65 65 66 65 66 66 67 66 66 66 66 67 66 66 66 66 66 66 66 65 65
64 62 63 63 64 63 62 61 60 61 61 61 60 60 59 60 61 61 61 61 62 59 58 58 59 60 59 60 60 60 59 58 54 55 52 54 57 58 59 60 62 63 63 62 63 64 64 64 63 61 64 66 66 66 66 64 64 64 65 66 66 65 65 65 65 65 65 66 66 66 66 66 67 67 66 66 66 66 66 66 66 65 65 65 65
62 61 61 61 62 62 62 63 61 61 60 61 61 61 61 61 62 62 61 62 62 60 58 56 56 56 58 60 61 61 58 59 59 57 55 54 54 54 58 62 63 63 62 61 60 61 63 65 61 60 62 64 65 64 64 62 62 63 65 66 66 66 66 66 65 65 66 66 66 66 66 67 67 67 67 67 66 66 66 65 65 65 65 65 66
61 60 60 61 61 61 62 62 62 63 61 60 61 61 61 61 61 61 61 61 61 61 60 58 59 58 59 61 62 59 57 59 58 58 55 54 53 54 55 59 60 61 63 62 61 61 60 61 61 60 63 63 63 64 63 64 64 65 65 65 65 65 66 66 66 65 66 66 66 67 67 67 66 66 67 67 66 66 66 66 66 66 66 65 65
61 60 60 59 61 60 60 61 62 63 62 63 63 63 62 62 61 62 62 62 63 61 60 59 59 59 60 60 59 59 58 59 59 60 60 61 57 55 57 58 57 59 62 62 61 59 58 60 61 59 59 61 61 61 61 62 66 65 64 64 65 65 65 65 66 66 66 66 67 67 67 67 66 66 66 67 66 65 66 66 66 66 66 65 65
58 59 59 59 61 61 60 60 61 62 62 62 62 61 62 63 63 63 63 63 63 63 63 63 62 62 62 61 60 60 58 58 59 58 59 58 57 57 57 58 58 58 59 60 61 58 58 59 59 59 61 61 61 61 65 66 63 62 63 63 64 64 65 65 66 66 66 66 66 66 66 66 65 65 66 66 66 66 66 66 66 66 65 65 65
58 57 59 59 60 60 60 60 60 61 61 61 61 61 61 62 63 62 62 63 63 62 62 62 61 61 61 61 62 62 60 60 59 59 58 58 58 57 57 58 58 55 55 59 58 57 56 56 58 60 66 66 65 65 66 66 64 62 62 59 61 62 64 65 65 65 66 66 66 66 66 67 66 65 66 65 66 66 66 66 66 66 66 66 66
57 57 58 59 58 58 59 58 58 60 61 61 61 61 61 62 60 61 61 61 61 61 60 61 61 61 60 61 61 61 60 61 61 61 60 61 59 57 57 57 56 57 56 55 55 56 61 63 63 64 62 62 64 64 64 63 64 61 62 58 57 58 60 62 64 64 64 65 65 66 66 66 66 66 66 66 66 66 66 66 66 66 66 66 66
56 57 56 57 57 58 58 59 58 59 60 61 61 62 62 60 60 60 60 60 60 60 59 60 60 60 61 59 59 58 59 60 60 60 59 59 57 57 57 58 57 54 55 54 61 58 63 62 63 63 65 62 61 60 62 62 62 60 61 60 57 56 57 59 61 62 63 63 64 64 65 65 65 65 65 65 66 66 66 66 66 66 66 67 67
55 55 55 56 57 57 58 58 58 59 60 61 60 60 61 60 59 58 57 57 58 58 58 59 58 58 59 58 58 58 57 58 58 59 59 59 58 59 58 56 55 55 55 55 55 57 60 58 57 56 58 62 61 58 57 59 59 60 60 61 57 55 55 55 57 59 61 62 63 63 64 64 64 64 64 64 63 64 64 64 64 64 65 65 64
55 54 55 55 56 56 57 57 57 59 59 60 60 59 59 57 56 56 55 55 55 56 55 56 57 57 58 58 57 56 57 57 57 57 58 58 58 59 58 57 54 52 53 54 58 57 58 59 59 58 55 57 58 57 55 55 57 59 58 59 57 54 53 53 54 56 57 58 61 62 64 63 62 62 63 62 62 62 62 63 63 63 63 62 62
53 54 55 55 56 56 56 56 58 58 59 59 59 58 57 57 56 55 56 56 56 56 55 55 55 55 55 57 55 55 56 57 57 57 57 58 58 58 58 57 57 55 54 52 56 56 55 57 56 58 59 56 58 57 53 52 55 58 58 58 57 54 52 52 52 53 54 54 56 59 62 62 61 61 61 61 61 60 60 61 61 61 61 60 59
52 53 54 54 56 56 55 56 57 57 58 59 58 57 57 56 56 55 55 55 55 55 55 54 55 54 54 55 55 54 55 55 54 57 56 57 57 57 57 57 57 56 55 55 54 56 56 57 57 56 58 54 52 55 54 51 53 57 56 58 58 57 51 50 50 52 51 50 52 54 56 58 59 59 59 59 59 58 57 58 58 58 57 56 56
51 52 53 53 55 54 55 56 57 57 57 56 56 56 55 55 55 54 54 54 53 52 52 52 52 52 51 52 53 52 55 55 54 54 55 55 56 55 55 57 57 57 57 57 55 56 56 53 55 53 55 53 48 50 50 50 51 56 56 57 56 57 53 49 49 49 50 49 49 51 52 54 56 56 56 56 56 56 55 54 55 55 54 53 53
50 52 52 53 53 53 54 55 55 55 56 55 55 54 53 54 54 53 52 52 51 50 50 51 51 51 49 48 50 51 52 52 53 53 53 54 55 52 53 54 55 56 56 56 55 52 52 52 50 47 48 49 46 48 48 48 51 53 54 54 54 55 53 51 48 48 49 48 47 47 49 50 50 52 53 53 53 53 53 52 51 50 51 51 52
50 50 52 53 50 52 53 54 53 54 54 54 53 53 53 54 53 52 50 49 47 48 48 49 50 50 48 46 47 49 50 51 50 50 49 50 52 51 52 52 51 53 54 55 55 52 48 48 45 45 45 48 43 45 46 46 49 50 52 53 54 53 50 50 48 46 47 48 46 46 47 47 48 47 49 50 49 48 49 48 47 48 50 51 50
49 50 52 51 51 51 53 52 51 51 51 52 53 53 52 52 52 51 50 48 47 47 48 46 48 49 49 47 47 49 49 48 49 48 49 48 47 48 48 50 48 50 53 51 50 48 44 46 42 44 42 43 41 45 46 46 48 49 51 53 52 50 48 47 46 45 47 48 46 46 46 46 46 45 46 46 45 45 45 45 45 46 47 48 48
48 50 52 50 50 51 52 52 51 51 52 52 53 52 50 48 46 48 48 48 48 47 46 46 44 47 47 47 47 49 49 49 48 49 49 48 47 47 47 47 48 49 49 51 49 45 43 41 43 40 40 39 40 40 43 44 46 48 47 51 52 48 46 46 45 45 46 47 46 45 46 46 46 44 44 45 44 44 45 45 45 45 45 45 45
46 52 50 47 49 51 51 51 51 50 50 49 48 47 46 45 44 44 45 47 47 46 46 46 45 46 46 47 47 48 49 48 47 47 48 48 47 47 46 46 47 47 47 47 47 44 40 36 39 37 37 34 33 38 41 40 39 44 45 47 50 48 44 42 43 43 45 47 46 45 46 46 46 45 44 44 44 44 44 44 44 44 44 43 44
47 51 50 48 48 49 49 47 47 44 43 43 43 44 45 46 45 45 45 45 46 46 47 46 46 46 45 46 46 47 48 48 47 47 48 48 45 47 45 42 42 42 42 43 41 41 39 36 35 35 37 35 33 36 38 36 35 38 42 42 45 45 42 41 39 40 45 46 46 45 46 46 46 46 44 43 44 44 44 44 44 44 44 43 43
48 50 49 49 48 47 45 42 42 42 42 42 41 41 42 45 46 46 46 46 45 45 46 46 45 45 45 44 45 46 46 47 48 47 46 45 43 43 44 42 37 40 41 40 40 39 36 34 35 32 35 35 33 31 33 35 34 35 38 38 41 45 42 38 34 35 39 43 44 39 44 45 46 46 45 43 43 43 43 43 43 44 44 43 43
47 49 49 49 49 45 43 43 43 43 41 41 42 42 41 42 44 44 45 45 46 47 46 44 44 44 43 42 43 43 43 44 46 47 46 44 43 44 44 43 41 40 39 37 35 36 36 34 30 31 30 32 34 28 26 32 33 32 38 38 35 42 45 39 33 29 34 41 45 44 43 45 46 46 45 44 43 42 43 43 43 43 43 43 42
46 46 48 48 47 45 45 44 43 42 41 40 40 39 40 43 44 44 45 45 44 44 46 45 44 42 42 42 42 41 40 40 42 43 46 46 41 43 44 42 40 39 37 34 33 31 32 32 28 26 28 29 30 30 31 35 34 34 36 36 35 38 41 41 38 28 30 39 42 32 36 44 46 48 47 45 44 44 43 42 42 42 43 42 42
47 46 48 46 44 44 43 44 42 42 42 43 45 45 41 42 44 44 44 43 43 42 42 43 43 41 41 41 41 40 41 41 40 39 40 41 42 40 43 44 40 37 37 35 31 27 30 30 29 29 27 28 29 30 29 32 34 35 37 36 36 38 37 37 38 31 26 37 42 38 27 40 43 44 42 44 41 41 41 42 41 41 42 42 41
46 47 47 47 44 44 43 43 43 43 41 42 43 43 44 44 42 42 43 42 42 42 42 42 43 42 40 41 43 42 41 41 39 38 37 37 38 38 38 41 44 39 35 35 33 28 28 28 28 29 29 30 29 33 33 34 38 39 37 34 34 35 35 34 37 32 29 37 40 41 29 35 39 38 37 40 41 39 39 40 39 40 41 41 41
45 45 47 46 46 45 44 44 44 43 41 39 41 39 39 41 44 42 41 41 40 40 40 40 40 42 42 41 44 44 43 39 37 38 37 37 37 36 36 37 37 41 42 36 35 36 28 28 28 31 30 32 31 31 32 34 37 38 36 32 35 37 34 31 31 33 31 34 38 41 31 33 37 34 34 37 42 40 35 40 42 41 41 41 40
43 45 47 46 46 46 46 44 44 43 42 43 38 39 39 39 43 45 41 40 39 38 38 36 35 36 39 40 40 40 42 41 38 36 37 38 38 37 36 36 35 35 35 39 40 35 35 31 29 31 33 33 29 31 31 35 36 36 35 31 35 37 37 32 33 34 32 33 35 39 33 29 34 32 33 35 42 42 40 42 41 41 40 41 40
43 44 45 47 47 47 46 44 43 42 41 40 38 39 39 39 39 43 38 40 39 38 36 36 36 36 35 37 39 39 35 38 36 37 38 40 39 39 39 40 38 36 33 34 35 39 37 34 33 32 34 35 30 30 35 37 39 35 34 29 35 37 38 37 36 39 37 32 32 37 33 27 29 31 29 33 40 42 39 42 42 41 41 40 40
43 44 47 48 48 47 46 45 44 43 42 42 39 39 39 39 39 39 39 40 39 38 37 36 36 37 37 36 36 37 38 39 39 37 35 36 37 37 35 33 32 35 37 36 35 36 37 37 35 33 34 36 34 35 37 36 37 36 35 34 38 38 39 39 43 41 39 32 30 36 32 26 28 30 27 31 37 40 40 43 41 41 41 40 40
41 43 45 47 48 47 46 45 45 45 44 39 39 39 39 39 39 39 40 39 38 38 37 37 36 36 36 36 35 33 33 32 38 36 35 34 34 35 33 32 29 27 29 30 34 35 34 34 34 34 34 34 35 35 36 35 38 39 40 40 39 38 38 41 42 38 34 32 34 36 33 27 28 29 28 31 34 36 32 41 41 41 41 41 41
38 40 43 45 47 47 46 46 46 44 43 37 38 39 38 38 38 41 40 39 38 36 36 36 34 34 33 34 34 33 32 33 33 35 36 39 32 33 33 33 31 29 25 28 31 31 34 32 33 33 32 33 32 34 33 34 35 39 40 32 34 36 26 24 25 33 28 29 31 33 36 27 29 28 27 31 35 34 30 35 41 41 40 41 41
35 36 40 42 44 45 46 46 45 45 43 40 37 38 38 37 41 39 40 36 37 37 36 35 33 36 38 35 31 29 30 31 35 34 34 40 31 30 30 32 32 30 30 30 32 31 31 30 30 30 31 32 33 34 33 34 36 39 35 27 31 32 24 22 26 29 26 26 27 34 37 23 30 29 28 31 33 33 30 34 38 38 39 40 40
31 33 35 37 40 42 44 44 44 44 45 41 37 37 37 37 39 41 37 37 38 38 38 35 31 30 32 40 41 32 32 34 34 35 34 42 32 32 32 31 31 31 32 32 32 37 32 31 31 29 31 32 34 33 34 34 35 37 36 31 35 30 27 26 22 25 24 27 28 34 36 24 31 29 29 31 30 31 30 33 36 36 36 35 37
33 31 29 31 34 37 41 44 44 44 46 41 36 36 36 36 41 42 35 35 36 36 35 34 33 29 27 32 37 37 35 35 34 34 34 39 34 34 31 30 28 30 31 31 32 33 36 37 37 38 37 39 39 34 35 33 35 35 36 36 34 31 26 23 24 23 19 25 30 35 33 29 30 26 30 29 26 27 31 33 34 33 31 32 32